[[{"header":{"parameterUnit":"m.s-1","parameterCategory":1,"la1":30.2991,"la2":30.254,"lo1":-89.0895,"lo2":-89.0444,"dy":0.0017,"dx":0.0017,"nx":28,"ny":28,"refTime":"2023-11-07T03:00:00:Z","depth":0,"parameterNumber":2,"parameterNumberName":"U-component_of_WINDS"},"data":[0,0,0,0,0,0,0,0,0,0,0,0,0,0,0,0,0,0,0,0,0,0,0,0,0,0,0,0,0,0,0,0,0,0,0,0,0,0,0,0,0,0,0,0,0,0,0,0,0,0,0,0,0,0,0,0,0,0,0.786,0.786,0,0.7912,0.7913,0.7913,0.7878,0.7877,0.7875,0.7874,0.7928,0.7931,0.7934,0,0,0,0,0,0,0,0,0,0,0,0,0,0.773,0.7732,0.786,0.786,0.7861,0.7912,0.7913,0.7913,0.7879,0.7877,0.7875,0.7873,0.7927,0.793,0.7934,0,0,0,0,0,0,0,0,0,0,0,0,0,0.7785,0.7733,0.7859,0.785,0.7849,0.7912,0.7913,0.7913,0.7879,0.7877,0.7874,0.7872,0.7926,0.793,0.7934,0.8009,0,0,0.7948,0.795,0,0,0,0,0,0,0,0,0.7782,0.7789,0.7851,0.7851,0.785,0.7886,0.7887,0.7946,0.788,0.7868,0.7874,0.7871,0.7916,0.7921,0.7936,0.8012,0.8014,0.7948,0.7951,0.7953,0.7954,0,0,0,0,0,0,0,0.7778,0.7787,0.788,0.7851,0.7851,0.7843,0.7848,0.7898,0.7905,0.7869,0.7866,0.7873,0.7915,0.7932,0.7937,0.8015,0.7948,0.7952,0.7955,0.7956,0.8155,0.8158,0,0,0,0,0,0,0.7775,0.7784,0.7879,0.7882,0.7809,0.7847,0.7853,0.7877,0.7904,0.7906,0.7875,0.7871,0.7926,0.7932,0.7939,0.8029,0.7953,0.7957,0.7959,0.8153,0.8156,0.8159,0,0,0,0,0,0,0.7772,0.7784,0.7876,0.7832,0.7844,0.7852,0.7879,0.7879,0.7896,0.7909,0.791,0.7891,0.7924,0.7933,0.7992,0.803,0.7959,0.7963,0.815,0.8154,0.8157,0.8209,0,0,0,0,0,0,0.7769,0.7783,0.7811,0.7833,0.7846,0.7929,0.7882,0.7882,0.7903,0.7899,0.7924,0.7925,0.7923,0.7986,0.7997,0.8035,0.7966,0.8146,0.8151,0.8156,0.8204,0.8215,0.8223,0,0,0,0,0,0.7764,0.7824,0.7813,0.7825,0.7882,0.7931,0.7938,0.7934,0.7907,0.7936,0.7944,0.7925,0.8024,0.7992,0.8004,0.8044,0.8144,0.815,0.8156,0.82,0.8213,0.8223,0,0,0,0,0,0,0.7806,0.7827,0.7815,0.7883,0.7906,0.7925,0.7961,0.7947,0.7978,0.7973,0.7966,0.7972,0.8034,0.8045,0.8009,0.8118,0.808,0.8088,0.8109,0.8121,0.8131,0.8127,0.797,0,0,0,0,0,0.7824,0.7862,0.7878,0.7937,0.7949,0.7953,0.7975,0.7969,0.7992,0.8002,0.8014,0.8037,0.8074,0.8098,0.8132,0.8205,0.821,0.8239,0.8248,0.8256,0.8264,0.8304,0.8317,0.8178,0.8178,0.8178,0,0,0.786,0.7876,0.79,0.7946,0.7962,0.8002,0.7961,0.8005,0.8035,0.8008,0.8065,0.8075,0.8101,0.8167,0.8197,0.8178,0.8303,0.8264,0.827,0.8274,0.8311,0.8325,0.8336,0.8182,0.8182,0.8181,0,0,0.7947,0.7962,0.8013,0.8031,0.8057,0.8059,0.8072,0.8093,0.8099,0.8156,0.8137,0.8172,0.8235,0.8254,0.8272,0.8366,0.835,0.8377,0.8427,0.8466,0.8477,0.8487,0.8521,0.8533,0.8385,0.8385,0.8385,0,0.7989,0.8048,0.8042,0.8087,0.8108,0.8085,0.8137,0.8154,0.819,0.8205,0.8183,0.8262,0.8277,0.8348,0.8371,0.8386,0.84,0.8375,0.8476,0.8486,0.8495,0.8527,0.854,0.8388,0.8388,0.8387,0.8387,0,0.8099,0.814,0.8178,0.8214,0.8238,0.8287,0.8288,0.8314,0.8306,0.8311,0.837,0.8387,0.8425,0.8441,0.8434,0.8512,0.8499,0.8477,0.8438,0.8511,0.8542,0.8554,0.8393,0.8391,0.839,0.839,0,0,0.8214,0.8245,0.8259,0.8275,0.8302,0.8334,0.8381,0.8418,0.844,0.8466,0.8506,0.856,0.8539,0.856,0.8554,0.8589,0.8662,0.8562,0.8563,0.8581,0.875,0.8767,0.8781,0.8652,0.8654,0.8656,0.8748,0,0.8302,0.8386,0.8381,0.8459,0.8498,0.8476,0.8518,0.8539,0.8545,0.8578,0.8585,0.8623,0.8593,0.8605,0.8638,0.8647,0.8696,0.864,0.8689,0.8691,0.8684,0.8797,0.8815,0.8901,0.8759,0.8761,0.8763,0,0.8417,0.8446,0.8528,0.855,0.8566,0.8603,0.8636,0.8669,0.8692,0.8694,0.8717,0.8706,0.8755,0.8714,0.8781,0.8742,0.8762,0.8769,0.8772,0.8777,0.8732,0.8806,0.8928,0.8941,0.8781,0.878,0.8779,0,0.8494,0.8554,0.8611,0.8625,0.8651,0.8678,0.869,0.8711,0.8733,0.8762,0.8777,0.8811,0.883,0.8857,0.8856,0.8827,0.8924,0.8883,0.8928,0.8928,0.895,0.8949,0.9078,0.8962,0.8961,0.8961,0.8961,0,0.8594,0.8645,0.8645,0.868,0.8737,0.8731,0.8788,0.8797,0.8816,0.8853,0.8836,0.8871,0.8867,0.8902,0.8902,0.8957,0.8966,0.8969,0.8968,0.8971,0.8971,0.8984,0.8979,0.8965,0.8964,0.8963,0.8963,0,0.8689,0.8691,0.8752,0.8772,0.8778,0.8819,0.8836,0.8869,0.8874,0.892,0.8931,0.8938,0.8978,0.898,0.9026,0.9026,0.9094,0.9086,0.9086,0.9085,0.913,0.9126,0.9273,0.9292,0.9163,0.9164,0.9165,0,0.8753,0.8792,0.8816,0.8839,0.8853,0.889,0.8913,0.8909,0.8934,0.8963,0.8993,0.9032,0.9063,0.9129,0.9138,0.9174,0.9167,0.9216,0.9173,0.9174,0.9169,0.9167,0.9171,0.9225,0.9227,0.9228,0.9229,0,0.8866,0.8865,0.8899,0.8933,0.8961,0.8988,0.9012,0.9032,0.9031,0.9059,0.9101,0.9125,0.9172,0.9211,0.9246,0.9258,0.9244,0.9242,0.9255,0.9258,0.9257,0.9259,0.911,0.9239,0.9238,0.9237,0.9237,0.9236,0.8948,0.8982,0.9004,0.9042,0.906,0.9084,0.9116,0.9124,0.9159,0.9197,0.9192,0.9238,0.9261,0.9306,0.9322,0.9358,0.9341,0.9358,0.9363,0.9367,0.9373,0.925,0.9364,0.9363,0.9363,0.9363,0.9363,0,0.9061,0.9074,0.9109,0.9144,0.9174,0.9157,0.9184,0.921,0.9251,0.9273,0.9304,0.9352,0.9389,0.9402,0.9438,0.9465,0.9459,0.9475,0.9473,0.9476,0.9385,0.9371,0.9479,0.9479,0.9479,0.9479,0.9479,0.9479,0.9123,0.9179,0.9181,0.9246,0.9259,0.9304,0.9321,0.9343,0.936,0.9414,0.9446,0.9453,0.9472,0.951,0.9544,0.9546,0.9561,0.958,0.958,0.9494,0.9483,0.9472,0.9458,0.9583,0.9583,0.9668,0.9669,0.9669]},{"header":{"parameterUnit":"m.s-1","parameterCategory":1,"la1":30.2991,"la2":30.254,"lo1":-89.0895,"lo2":-89.0444,"dy":0.0017,"dx":0.0017,"nx":28,"ny":28,"refTime":"2023-11-07T03:00:00:Z","depth":0,"parameterNumber":3,"parameterNumberName":"V-component_of_WINDS"},"data":[0,0,0,0,0,0,0,0,0,0,0,0,0,0,0,0,0,0,0,0,0,0,0,0,0,0,0,0,0,0,0,0,0,0,0,0,0,0,0,0,0,0,0,0,0,0,0,0,0,0,0,0,0,0,0,0,0,0,0.3484,0.3483,0,0.3444,0.3443,0.3443,0.3388,0.3388,0.3387,0.3386,0.3346,0.3346,0.3346,0,0,0,0,0,0,0,0,0,0,0,0,0,0.3513,0.3513,0.3484,0.3483,0.3483,0.3444,0.3443,0.3443,0.3389,0.3387,0.3386,0.3385,0.3346,0.3346,0.3346,0,0,0,0,0,0,0,0,0,0,0,0,0,0.349,0.3513,0.3484,0.3451,0.3448,0.3444,0.3443,0.3443,0.3389,0.3387,0.3386,0.3385,0.3346,0.3346,0.3346,0.3371,0,0,0.3345,0.3344,0,0,0,0,0,0,0,0,0.3491,0.3489,0.3456,0.3453,0.3449,0.342,0.3439,0.3419,0.3389,0.3411,0.3386,0.3384,0.3372,0.3369,0.3365,0.3369,0.3368,0.3345,0.3344,0.3344,0.3344,0,0,0,0,0,0,0,0.3493,0.349,0.3468,0.3456,0.3452,0.3438,0.3433,0.3435,0.34,0.3409,0.3405,0.3401,0.337,0.3365,0.3363,0.3367,0.3345,0.3344,0.3344,0.3344,0.339,0.3391,0,0,0,0,0,0,0.3499,0.3492,0.3469,0.3467,0.3467,0.3439,0.3433,0.3431,0.34,0.3393,0.3402,0.3399,0.3366,0.3364,0.3362,0.339,0.3344,0.3344,0.3344,0.3388,0.339,0.3391,0,0,0,0,0,0,0.35,0.3498,0.3471,0.3478,0.3474,0.344,0.3437,0.3431,0.3426,0.3394,0.3388,0.3404,0.3365,0.3362,0.3369,0.3387,0.3344,0.3344,0.3387,0.3389,0.3391,0.3446,0,0,0,0,0,0,0.3501,0.3498,0.3508,0.3479,0.3473,0.3479,0.3438,0.3431,0.3426,0.3421,0.3394,0.3389,0.3364,0.337,0.3369,0.3386,0.3343,0.3385,0.3388,0.339,0.3442,0.3449,0.3455,0,0,0,0,0,0.3502,0.3525,0.3509,0.3506,0.3485,0.348,0.3477,0.3448,0.3427,0.3437,0.3416,0.339,0.3385,0.3371,0.3369,0.3387,0.3384,0.3387,0.339,0.3439,0.3448,0.3455,0,0,0,0,0,0,0.3558,0.3521,0.3502,0.3516,0.3502,0.3471,0.3482,0.3458,0.3449,0.3445,0.3409,0.3403,0.3415,0.3401,0.3386,0.341,0.338,0.3383,0.3418,0.3426,0.3433,0.3437,0.3343,0,0,0,0,0,0.3572,0.3571,0.3539,0.3554,0.3548,0.3516,0.3513,0.3491,0.3475,0.3469,0.3449,0.3434,0.3429,0.3427,0.3421,0.3439,0.3433,0.345,0.3457,0.3463,0.3466,0.3475,0.3482,0.3402,0.3402,0.3402,0,0,0.3601,0.358,0.3582,0.3565,0.3551,0.3551,0.3511,0.3513,0.3513,0.3469,0.3474,0.3459,0.344,0.3453,0.3457,0.3442,0.3487,0.3467,0.3472,0.3472,0.3479,0.3486,0.3493,0.3404,0.3403,0.3403,0,0,0.3654,0.3638,0.3649,0.3636,0.3615,0.3593,0.3596,0.3569,0.3556,0.3561,0.3528,0.3527,0.3519,0.3507,0.35,0.3546,0.3522,0.3545,0.3581,0.359,0.3596,0.3602,0.3619,0.3625,0.3548,0.3549,0.3549,0,0.3692,0.3691,0.3658,0.3662,0.3655,0.3614,0.3625,0.3614,0.3592,0.3589,0.3571,0.3561,0.3545,0.3554,0.3565,0.3561,0.3563,0.3549,0.3598,0.3603,0.3608,0.3623,0.363,0.3552,0.3551,0.3551,0.3551,0,0.374,0.3739,0.3751,0.373,0.3725,0.3732,0.37,0.3698,0.3677,0.3657,0.3662,0.3641,0.363,0.363,0.3609,0.3636,0.3627,0.3604,0.3575,0.3619,0.3633,0.3639,0.3556,0.3555,0.3554,0.3553,0,0,0.3828,0.3788,0.3793,0.3783,0.3757,0.3756,0.3761,0.3749,0.3749,0.3735,0.3738,0.3732,0.371,0.3702,0.3679,0.3687,0.3725,0.3663,0.3662,0.3676,0.3754,0.3772,0.3779,0.3708,0.3709,0.371,0.3755,0,0.3876,0.3883,0.3853,0.3868,0.3867,0.3827,0.3831,0.3816,0.3797,0.3793,0.3772,0.3769,0.374,0.3735,0.3741,0.372,0.3741,0.3716,0.3712,0.3712,0.3719,0.3787,0.3806,0.385,0.3761,0.3761,0.3762,0,0.3934,0.3923,0.3937,0.3909,0.3908,0.3912,0.3899,0.3896,0.3877,0.3862,0.3853,0.3826,0.3829,0.3799,0.3803,0.3787,0.3783,0.3772,0.3773,0.3773,0.3741,0.3789,0.3863,0.387,0.377,0.377,0.3769,0,0.3998,0.3986,0.3993,0.3986,0.3953,0.3957,0.3944,0.3923,0.3918,0.3906,0.3902,0.3891,0.3885,0.3877,0.3848,0.3829,0.3855,0.3823,0.3843,0.3844,0.3852,0.3852,0.3927,0.3848,0.3848,0.3848,0.3847,0,0.4055,0.4066,0.4021,0.4026,0.4036,0.4001,0.4012,0.3995,0.3977,0.3977,0.3942,0.3943,0.3904,0.39,0.3877,0.3884,0.3881,0.387,0.3864,0.3874,0.3875,0.3872,0.3868,0.3849,0.3849,0.3848,0.3848,0,0.4129,0.4099,0.4104,0.4072,0.4065,0.4074,0.4047,0.4049,0.4028,0.4029,0.4027,0.3993,0.3987,0.3957,0.3944,0.3929,0.3943,0.3931,0.395,0.3946,0.3969,0.3967,0.4045,0.4054,0.3968,0.3969,0.397,0,0.4168,0.4175,0.4144,0.4142,0.413,0.4126,0.412,0.4085,0.4081,0.4059,0.4064,0.4055,0.4046,0.4039,0.4013,0.4003,0.399,0.4018,0.3989,0.3998,0.3992,0.3992,0.3993,0.4025,0.4026,0.4027,0.4028,0,0.4241,0.4226,0.4219,0.4207,0.42,0.4189,0.4176,0.4175,0.4136,0.4133,0.4126,0.4119,0.4106,0.4097,0.4083,0.4069,0.4042,0.4037,0.4042,0.4052,0.4063,0.4058,0.3968,0.4036,0.4035,0.4035,0.4034,0.4034,0.4299,0.4304,0.4282,0.4275,0.4261,0.4249,0.425,0.4228,0.4222,0.4208,0.4187,0.4184,0.4163,0.414,0.4128,0.4125,0.411,0.4116,0.4118,0.412,0.4125,0.4063,0.4122,0.4121,0.4121,0.4121,0.4121,0,0.4371,0.4355,0.4349,0.4331,0.4325,0.43,0.4283,0.428,0.4277,0.426,0.4252,0.4244,0.4235,0.4209,0.4197,0.42,0.4187,0.4198,0.4198,0.4195,0.4139,0.4137,0.4208,0.4208,0.4208,0.4208,0.4208,0.4208,0.4408,0.4414,0.4396,0.4394,0.4378,0.4374,0.4366,0.4355,0.4341,0.4334,0.4327,0.4309,0.4288,0.4274,0.4265,0.4258,0.4255,0.4271,0.4259,0.4207,0.4199,0.4191,0.4189,0.427,0.427,0.4315,0.4316,0.4316]}]]